Theta_e
310 312 313 313 314 315 316 316 316 316 317 318 320 320 320 320 321 321 321 321 319 319 319 317 317 318 317 317 316 315 314 314 309 306 294 291 290 289 289 291 290 290 291
306 306 307 307 308 310 311 312 314 318 319 319 320 320 321 321 321 320 320 320 320 319 318 318 317 317 316 316 316 315 314 314 311 308 289 287 288 290 289 288 288 289 288
294 295 295 296 296 296 296 297 299 300 301 303 306 311 312 314 315 317 319 319 319 319 319 317 317 316 314 314 314 313 313 309 300 292 288 286 286 288 286 286 286 285 286
295 295 295 295 296 296 296 296 296 297 298 301 302 303 303 304 305 305 306 309 313 316 314 312 311 310 310 312 310 308 301 294 291 289 286 285 286 285 286 284 283 284 283
294 294 294 294 295 295 294 294 296 299 298 298 298 298 299 299 299 298 298 300 303 305 305 304 303 297 291 296 299 299 296 290 287 287 285 285 285 284 285 284 284 283 282
293 293 293 293 292 292 291 291 295 294 295 295 293 294 292 293 295 295 295 296 297 296 297 297 296 290 293 296 297 298 297 292 288 287 286 286 285 286 285 284 282 280 279
293 292 291 290 289 289 289 288 288 289 290 289 289 290 289 291 294 295 293 292 292 293 291 291 291 290 289 290 293 293 292 295 293 290 287 288 286 286 286 283 283 282 280
290 289 288 288 288 288 288 288 290 288 288 287 287 286 286 287 292 293 292 290 290 289 289 289 289 288 288 288 287 286 286 286 286 287 287 286 286 286 286 285 284 281 280
289 289 288 288 285 287 289 289 290 286 286 287 286 285 285 286 290 292 291 288 287 287 287 286 288 287 289 290 286 285 284 285 289 289 289 289 289 289 286 284 281 280 277
288 288 287 285 287 287 288 288 286 286 286 285 285 285 285 286 289 292 289 286 285 285 285 285 286 286 289 291 286 285 283 283 285 285 286 287 287 287 287 284 283 278 277
286 285 283 283 286 287 286 285 285 285 285 285 283 284 285 285 286 292 290 285 285 283 283 284 285 289 290 290 288 286 285 285 286 284 283 283 284 284 281 282 284 281 279
283 283 283 285 285 286 286 285 285 285 285 285 285 284 280 281 286 290 290 289 288 280 280 282 284 290 290 290 286 289 288 286 283 283 282 281 279 281 282 281 282 281 283
284 284 285 285 286 286 286 285 285 285 285 284 283 281 279 280 283 289 289 289 288 280 281 284 288 290 289 287 289 289 284 281 276 276 278 275 278 282 283 282 279 280 281
284 284 285 285 285 285 285 285 285 285 284 283 281 276 275 281 283 280 281 280 282 283 284 284 287 287 287 284 285 285 279 275 275 275 278 281 281 281 281 280 277 277 277
283 283 285 285 284 284 283 284 284 283 282 282 275 275 274 275 282 286 285 283 281 285 284 284 284 283 282 282 283 282 282 282 281 281 277 281 280 278 277 279 278 277 275
282 283 284 284 283 283 282 281 286 287 288 288 288 282 276 285 288 288 288 288 287 285 276 281 280 281 280 281 281 281 282 282 281 282 281 281 278 279 278 276 278 277 276
282 283 283 282 282 282 281 280 277 278 286 287 287 287 288 288 288 288 289 288 288 285 280 279 277 278 280 280 280 280 280 277 275 277 279 279 279 279 277 278 276 277 276
280 282 282 282 281 279 278 278 278 274 272 271 280 284 286 287 287 288 289 287 284 285 281 281 280 280 281 273 272 272 273 273 273 277 279 280 280 280 279 278 277 275 275
276 275 274 271 271 271 270 268 268 267 275 280 275 278 281 286 286 286 286 284 282 282 282 282 282 282 282 282 282 281 281 281 276 276 275 277 277 278 277 275 274 275 274
277 276 277 276 275 274 274 276 280 280 279 277 274 274 272 281 279 278 275 274 274 273 273 273 272 270 271 272 273 274 275 276 276 275 275 274 273 273 273 271 271 271 270
279 279 280 280 280 281 280 280 280 278 276 273 270 273 276 268 270 269 268 266 264 262 261 259 260 262 263 263 263 264 265 267 268 270 270 269 268 267 268 269 267 267 267
278 278 278 277 277 276 273 273 273 270 267 261 256 260 269 258 257 256 253 253 253 254 254 255 257 257 257 257 258 259 260 261 263 263 264 265 266 265 265 266 266 267 265
271 270 269 267 265 263 262 262 263 262 260 258 256 257 256 256 257 256 255 252 253 254 253 254 254 255 253 253 253 254 256 257 258 259 261 261 260 261 261 262 262 261 262
266 266 265 264 264 264 263 262 261 261 260 258 258 256 257 255 254 254 254 254 254 254 253 251 251 252 252 253 253 252 252 254 253 254 255 257 258 259 258 259 262 262 262
266 266 266 266 265 264 263 262 261 261 261 261 260 258 255 255 256 255 254 255 255 253 253 253 252 251 253 254 255 255 256 258 256 256 252 253 254 254 255 255 257 257 258
265 265 264 264 263 263 263 263 263 262 261 261 260 259 258 257 257 255 255 255 255 254 254 253 253 254 254 253 253 257 260 264 262 261 259 253 253 251 253 254 254 253 255
Wind_Speed
8 8 8 6 6 6 6 6 6 6 6 7 9 10 11 11 12 12 14 13 14 14 14 14 16 15 11 11 11 12 13 13 15 5 2 1 7 11 13 11 9 9 7
7 6 7 5 5 5 4 3 2 4 4 5 6 8 9 10 10 11 12 11 13 13 12 14 15 11 14 12 11 14 12 10 12 14 2 1 1 12 14 14 9 8 7
6 7 6 6 5 5 5 4 3 3 3 3 4 4 5 5 5 5 7 9 10 11 12 9 12 11 11 10 10 10 10 6 2 3 4 2 1 7 7 6 9 6 5
7 7 6 6 5 4 3 3 3 3 2 1 1 2 2 3 5 4 5 7 8 9 5 4 5 5 7 9 8 7 1 3 3 3 2 2 3 3 5 8 7 3 5
7 7 7 5 5 5 4 4 4 1 1 2 1 1 2 3 2 4 4 5 6 6 5 5 4 5 5 3 1 4 4 3 2 3 3 1 3 4 11 5 5 5 3
7 7 7 7 6 6 5 6 5 5 4 3 2 2 2 3 5 5 5 5 6 5 5 6 5 3 4 4 6 8 8 6 5 4 3 4 4 4 5 7 5 3 3
7 6 6 6 6 6 5 5 5 4 3 2 1 0 2 3 4 6 5 3 4 4 5 4 5 4 3 2 3 2 2 3 4 6 7 6 6 7 7 7 6 4 2
6 5 5 5 5 5 5 4 2 0 0 1 2 3 3 3 6 6 6 3 1 2 3 3 1 2 4 2 3 4 5 6 5 3 3 3 4 7 10 7 8 6 3
7 7 7 6 5 6 5 5 4 3 3 2 1 1 1 2 5 5 2 2 2 2 2 3 1 2 4 8 6 6 6 4 5 9 10 11 13 15 13 9 6 6 2
8 7 6 6 6 5 5 4 3 2 2 2 2 1 1 3 5 3 5 2 2 0 1 1 1 3 5 11 5 7 7 4 5 4 5 8 8 10 12 1 7 5 3
8 7 6 6 5 3 4 2 3 3 3 3 3 1 1 3 4 3 4 2 1 1 1 2 1 3 9 11 9 5 4 7 9 5 4 4 4 5 3 4 7 4 3
8 8 6 6 5 3 6 3 4 4 4 3 2 1 2 3 5 2 3 3 2 1 2 1 1 6 8 10 6 9 15 10 5 3 3 3 3 2 1 1 2 3 2
10 9 7 6 5 5 6 5 4 3 3 2 2 1 2 2 3 7 6 6 4 3 2 1 0 9 7 4 9 12 8 2 3 2 2 1 1 2 2 2 1 1 3
11 9 7 7 6 5 4 4 4 3 4 2 3 2 0 3 3 3 2 4 7 5 7 4 6 8 6 4 4 5 3 3 2 2 1 0 0 1 2 2 1 1 2
10 9 8 6 6 6 5 4 3 2 2 1 3 3 3 3 1 2 1 3 2 4 5 4 3 3 3 2 2 2 2 2 3 3 1 2 1 1 2 2 2 3 5
10 8 7 7 6 7 6 6 11 8 5 3 5 4 1 4 6 4 3 6 7 7 4 2 2 2 3 3 3 2 0 2 2 3 2 3 4 4 5 2 4 5 6
9 11 7 7 7 8 6 6 5 3 9 11 12 12 12 9 10 7 5 7 7 5 3 2 1 1 1 2 2 2 4 3 3 3 4 4 4 4 5 5 5 5 6
9 10 6 6 6 5 5 5 5 3 3 1 7 10 11 12 12 9 7 7 2 2 1 1 1 1 2 2 2 3 3 3 2 3 3 4 4 5 5 4 4 5 5
9 6 6 5 4 5 6 5 5 4 4 3 2 7 7 10 12 12 11 3 2 3 4 4 5 4 3 3 3 3 4 4 2 2 2 3 3 3 4 3 2 4 4
7 11 9 7 6 6 6 6 5 5 5 4 4 3 3 4 4 5 5 5 5 4 4 4 4 4 5 5 5 5 5 5 5 3 2 2 2 1 3 2 2 2 2
7 8 9 7 7 6 6 7 6 5 4 4 4 4 9 4 4 3 3 4 4 3 3 2 2 2 2 2 2 3 3 4 4 4 4 3 3 2 2 3 2 2 2
7 7 6 6 6 6 5 5 5 5 4 4 1 3 10 4 4 4 3 2 2 1 1 1 1 2 2 2 2 2 2 3 3 3 3 3 3 3 2 2 3 3 2
6 7 6 5 5 7 6 5 6 5 5 4 3 3 3 3 3 2 3 1 0 1 2 2 2 3 3 3 2 1 2 3 3 2 3 4 3 3 2 3 2 2 2
7 7 7 6 5 5 5 5 5 5 5 4 4 3 2 2 2 2 1 0 1 1 0 1 1 1 2 2 2 2 3 3 2 3 3 2 3 4 2 2 3 3 3
6 7 6 6 6 6 6 5 4 4 4 4 3 2 1 1 1 0 1 1 1 2 3 2 1 2 3 4 5 6 6 6 5 5 2 2 3 4 2 2 2 2 1
6 6 6 5 5 5 5 5 4 3 3 3 3 2 2 2 1 1 1 2 2 2 3 3 3 4 6 4 6 8 7 8 7 8 4 2 2 3 2 2 3 2 2
Wind_Direction
184 186 192 193 193 196 208 213 211 218 209 216 224 226 227 227 227 228 234 237 235 236 235 233 239 241 241 246 241 240 243 243 254 255 45 157 181 162 166 198 190 204 190
181 176 188 174 183 204 225 232 243 245 229 228 229 233 234 232 233 238 241 246 252 253 249 246 244 244 244 246 254 252 250 255 267 257 77 1 271 209 174 172 184 205 196
158 163 167 184 189 209 219 227 244 279 305 349 355 342 350 342 334 307 287 257 251 255 257 251 253 255 254 252 255 256 259 280 25 105 143 179 132 176 159 171 159 177 182
162 163 168 181 187 187 174 148 129 119 130 186 257 294 326 333 318 335 326 318 305 286 277 283 298 293 279 271 268 268 248 153 142 126 135 158 143 156 153 167 165 166 191
169 162 181 173 160 151 153 137 120 171 66 71 57 359 352 325 326 331 307 294 292 293 295 297 300 325 357 325 290 288 189 145 138 155 133 140 139 160 182 170 165 158 174
171 171 161 158 160 168 156 144 166 178 182 163 199 216 299 306 286 312 325 306 302 318 306 303 300 322 310 298 250 234 202 182 190 158 150 190 181 156 175 144 122 118 203
170 167 167 160 163 165 156 152 159 171 178 201 240 281 254 277 309 306 299 279 309 314 316 322 331 347 318 293 336 8 331 246 177 190 188 189 171 172 136 119 167 163 168
167 158 158 156 154 146 137 125 108 100 99 51 26 4 345 335 336 319 321 330 3 18 6 343 291 321 257 154 112 72 55 48 43 61 64 111 101 143 152 157 169 124 91
177 174 169 160 147 144 157 165 165 154 129 108 175 47 3 302 330 332 75 53 359 4 326 299 303 199 199 157 129 114 88 67 79 105 123 133 146 158 150 126 154 153 128
176 164 149 137 145 155 156 160 127 97 121 133 132 167 311 306 325 10 125 148 151 197 279 353 352 267 210 163 141 140 134 143 118 93 91 96 112 148 155 147 153 143 128
139 126 111 109 119 146 124 89 131 116 124 94 85 12 343 331 328 97 106 106 146 180 251 263 255 217 154 149 153 150 160 150 141 123 117 123 132 151 162 157 169 140 156
118 112 119 128 125 149 140 151 125 126 120 115 109 49 0 0 326 30 62 32 327 291 279 279 264 165 146 142 133 143 149 138 133 140 158 164 168 184 89 55 166 169 133
123 126 133 125 140 159 144 131 113 113 93 79 89 49 313 30 354 3 14 50 33 354 355 315 139 128 124 111 141 148 134 102 85 112 215 355 71 133 129 155 125 75 121
126 131 137 141 153 140 121 130 126 129 125 194 175 149 132 63 22 342 10 27 31 35 37 27 58 79 72 66 109 105 66 55 65 79 75 190 129 160 203 158 163 166 248
131 143 154 149 168 130 92 94 81 39 91 198 265 134 116 75 140 208 112 77 58 87 67 51 49 26 20 24 6 351 353 310 286 287 228 254 265 172 215 176 206 186 215
139 155 160 162 158 112 111 92 62 71 105 108 91 100 67 104 69 98 81 79 96 87 61 61 26 4 349 340 322 334 303 252 230 238 236 241 226 225 239 208 227 225 236
149 164 161 160 132 135 132 130 130 11 73 73 75 75 71 80 91 92 106 106 121 97 72 52 27 319 312 284 272 255 270 247 219 220 221 229 232 232 227 233 213 234 247
143 161 154 128 132 132 128 125 131 128 130 306 42 75 75 81 89 88 99 106 104 112 110 123 283 248 248 243 282 271 270 274 249 264 269 255 258 266 261 241 227 226 240
139 149 138 113 107 124 117 111 120 130 133 113 63 51 35 82 77 71 66 62 64 46 22 24 18 7 352 329 301 284 277 276 242 233 250 261 265 277 283 275 260 252 253
136 140 127 125 134 126 127 130 126 118 112 102 76 28 353 82 59 59 54 60 64 56 41 37 35 18 13 10 0 357 354 356 350 348 346 336 320 308 288 292 285 278 272
142 128 120 121 133 135 131 131 130 116 109 94 70 18 61 99 94 66 57 46 48 47 50 39 10 6 11 16 4 4 348 341 356 349 350 336 323 285 271 280 292 280 267
124 120 124 128 128 119 107 103 102 97 95 115 90 23 85 73 88 96 86 63 37 63 73 98 23 17 6 27 5 5 345 331 341 345 334 321 306 294 292 277 273 279 276
109 113 111 107 109 116 106 106 113 115 115 115 111 81 57 67 69 77 96 134 13 13 350 49 47 12 349 348 9 8 329 300 289 304 310 305 305 308 294 278 264 263 248
118 121 121 115 111 102 104 105 103 103 110 107 96 90 106 136 139 133 150 197 354 331 320 66 66 350 321 314 304 281 265 273 264 279 290 284 290 298 295 288 293 285 285
107 110 111 119 119 118 120 113 113 118 118 122 129 139 155 171 172 218 280 300 323 333 324 339 338 316 305 311 308 313 301 303 291 274 270 240 264 284 277 263 272 274 257
101 104 100 102 112 119 118 126 124 130 145 144 152 157 168 196 241 236 245 261 256 260 272 266 270 293 301 291 291 291 290 299 289 268 234 210 255 295 295 271 282 246 248